Weather History for Orlando, FL

Change the Weather History Date:

Monday, April 7, 2014

  Actual Average Record
Temperature  
Mean Temperature 80 °F -  
Max Temperature 90 °F 80 °F 90 °F (2014)
Min Temperature 71 °F 60 °F 50 °F (2009)
Cooling Degree Days 15    
Growing Degree Days 30 (Base 50)    
Moisture  
Dew Point 66 °F    
Average Humidity 67    
Maximum Humidity 87    
Minimum Humidity 44    
Precipitation  
Precipitation 0.07 in - - ()
Sea Level Pressure  
Sea Level Pressure 29.91 in    
Wind  
Wind Speed 13 mph (South)    
Max Wind Speed 21 mph    
Max Gust Speed 29 mph    
Visibility 10 miles    
Events Rain    
Averages and records for this station are not official NWS values.
T = Trace of Precipitation, MM = Missing Value Source: NWS Daily Summary

Daily Weather History Graph

Daily Weather History Graph

Search for Another Location

Airport:

Trip Planner

Search our weather history database for the weather conditions in past years. The results will help you decide how hot, cold, wet, or windy it might be!

Date:

Astronomy

Apr. 07, 2014 Rise Set
Actual Time 7:08 AM EDT 7:46 PM EDT
Civil Twilight 6:44 AM EDT 8:10 PM EDT
Nautical Twilight 6:16 AM EDT 8:38 PM EDT
Astronomical Twilight 5:48 AM EDT 9:07 PM EDT
Moon 1:15 PM EDT (4/7) 2:09 AM EDT (4/7)
Length of Visible Light 13h 25m
Length of Day
12h 38m
First Quarter, 53% of the Moon is Illuminated
Apr 7
First Quarter
Apr 15
Full
Apr 22
Last Quarter
Apr 29
New
May 6
First Quarter

Hourly Weather History & Observations

Time (EDT) Temp. Heat Index Dew Point Humidity Pressure Visibility Wind Dir Wind Speed Gust Speed Precip Events Conditions
12:53 AM 73.0 °F - 64.9 °F 76% 29.97 in 10.0 mi SSE 12.7 mph - N/A   Clear
1:53 AM 73.0 °F - 66.0 °F 79% 29.95 in 10.0 mi SSE 12.7 mph - N/A   Clear
2:53 AM 72.0 °F - 66.0 °F 81% 29.93 in 10.0 mi SSE 13.8 mph - N/A   Clear
3:53 AM 72.0 °F - 66.0 °F 81% 29.91 in 10.0 mi South 15.0 mph - N/A   Clear
4:53 AM 72.0 °F - 66.0 °F 81% 29.92 in 10.0 mi South 12.7 mph - N/A   Clear
5:53 AM 72.0 °F - 66.9 °F 84% 29.94 in 10.0 mi South 12.7 mph - N/A   Clear
6:53 AM 71.1 °F - 66.9 °F 87% 29.96 in 10.0 mi South 8.1 mph - N/A   Clear
7:53 AM 71.1 °F - 66.9 °F 87% 29.96 in 10.0 mi South 9.2 mph - N/A   Clear
8:53 AM 73.0 °F - 68.0 °F 84% 29.96 in 10.0 mi South 11.5 mph - N/A   Clear
9:53 AM 75.9 °F - 68.0 °F 76% 29.95 in 10.0 mi South 12.7 mph 21.9 mph N/A   Partly Cloudy
10:53 AM 79.0 °F - 66.9 °F 66% 29.94 in 10.0 mi South 15.0 mph - N/A   Clear
11:53 AM 82.9 °F 85.4 °F 66.9 °F 58% 29.92 in 10.0 mi SSW 13.8 mph 21.9 mph N/A   Clear
12:53 PM 84.9 °F 86.1 °F 64.0 °F 49% 29.91 in 10.0 mi South 17.3 mph - N/A   Clear
1:53 PM 88.0 °F 90.3 °F 66.0 °F 48% 29.89 in 10.0 mi South 10.4 mph 19.6 mph N/A   Clear
2:53 PM 88.0 °F 90.3 °F 66.0 °F 48% 29.88 in 10.0 mi South 12.7 mph - N/A   Mostly Cloudy
4:53 PM 89.1 °F 91.0 °F 64.9 °F 45% 29.83 in 10.0 mi SSW 11.5 mph - N/A   Scattered Clouds
5:53 PM 88.0 °F 89.6 °F 64.9 °F 46% 29.83 in 10.0 mi SSW 11.5 mph - N/A   Mostly Cloudy
6:53 PM 87.1 °F 87.8 °F 63.0 °F 44% 29.84 in 10.0 mi SW 16.1 mph 24.2 mph N/A   Clear
7:53 PM 84.9 °F 85.9 °F 63.0 °F 48% 29.86 in 10.0 mi SW 13.8 mph - N/A   Clear
8:53 PM 82.9 °F 84.4 °F 64.0 °F 53% 29.86 in 10.0 mi SW 11.5 mph - N/A   Clear
9:53 PM 82.0 °F 83.8 °F 64.9 °F 56% 29.87 in 10.0 mi South 9.2 mph - N/A   Clear
10:53 PM 73.9 °F - 69.1 °F 85% 29.91 in 4.0 mi SSW 20.7 mph 28.8 mph 0.03 in Rain Rain
11:53 PM 75.0 °F - 70.0 °F 84% 29.88 in 10.0 mi South 10.4 mph - 0.04 in   Partly Cloudy